Location: Nasgenstadt
(48.2786°N, 9.7553°E)
Time: 06:04:17
(UTC+01:00)

ISS - Pass Details

Date: 13 January 2018
Orbit: 401 x 406 km, 51.6° (Epoch: 17 January)

Event Time Altitude Azimuth Distance (km) Brightness Sun altitude
Exits shadow 07:07:22 11° 262° (W) 1,377 -1.7 -9.9°
Maximum altitude 07:09:21 18° 222° (SW) 1,083 -1.9 -9.6°
Drops below altitude 10° 07:11:38 10° 177° (S) 1,458 -0.7 -9.2°
Sets 07:14:09 0° 157° (SSE) 2,314 0.8 -8.8°
